Starlink 31484

operational
NORAD ID: 59005 Int'l Des: 2024-036 Owner: SPXS Country: US Constellation: starlink
LEOCIRCULAR

Starlink 31484について

説明を読み込み中...

リアルタイム位置

3D地球を読み込み中...

次回通過

高度履歴

Altitude vs Time

uPlot chart will show altitude changes over time

軌道要素

1 59005U 24036H 26035.81897344 .00001890 00000-0 75949-4 0 9990
2 59005 53.1608 230.5933 0001224 99.5318 260.5821 15.30194640110293
Epoch: Feb 4, 2026 • Age: 16 hours

現在のステータス

高度 481.0 km
速度 7.63 km/s
衛星直下点 53.31°N, 6.97°E
打ち上げ日 Feb 23, 2024
運用期間 1.9 years
タイプ internet

技術仕様

分類 Payload
質量 730.00 kg
乾燥質量 700.00 kg
総質量 730.00 kg
長さ 0.30 m
直径 4.10 m
スパン 29.00 m
形状 Box + pan
製造者 SPXS
バスタイプ Starlink V2M
フェーズステータス In Orbit
所有者/国 SPXS/US

大規模コンステレーション

Loading constellations...